This is the latest recevied weather packets stored in our database for station/object DL6JOE-10. If no packets are shown the sender has not sent any weather packets the latest 10 day(s).
| Time | Temp. | Humidity | Pressure | Rain* | Wind** | Luminosity | Snow |
|---|---|---|---|---|---|---|---|
| 1787994741 | 25° C | 54% | 964.7 hPa | - | - | - | - |
| 1787993841 | 24.44° C | 56% | 964.7 hPa | - | - | - | - |
| 1787992941 | 22.78° C | 60% | 964.7 hPa | - | - | - | - |
| 1787992041 | 22.22° C | 61% | 964.8 hPa | - | - | - | - |
| 1787991140 | 21.67° C | 63% | 964.7 hPa | - | - | - | - |
| 1787990241 | 20.56° C | 65% | 964.8 hPa | - | - | - | - |
| 1787989340 | 20° C | 66% | 964.8 hPa | - | - | - | - |
| 1787988440 | 19.44° C | 68% | 964.7 hPa | - | - | - | - |
| 1787987540 | 18.89° C | 68% | 964.7 hPa | - | - | - | - |
| 1787986640 | 18.33° C | 68% | 964.8 hPa | - | - | - | - |
| 1787985740 | 18.33° C | 69% | 964.8 hPa | - | - | - | - |
| 1787984840 | 17.78° C | 68% | 964.7 hPa | - | - | - | - |
| 1787983940 | 17.22° C | 67% | 964.8 hPa | - | - | - | - |
| 1787983040 | 17.22° C | 66% | 964.8 hPa | - | - | - | - |
| 1787982140 | 17.22° C | 67% | 964.5 hPa | - | - | - | - |
| 1787981239 | 16.67° C | 66% | 964.5 hPa | - | - | - | - |
| 1787980340 | 16.67° C | 67% | 964.4 hPa | - | - | - | - |
| 1787979440 | 16.67° C | 67% | 964.4 hPa | - | - | - | - |
| 1787978539 | 16.67° C | 68% | 964.3 hPa | - | - | - | - |
| 1787977639 | 16.67° C | 68% | 964.3 hPa | - | - | - | - |
| 1787976739 | 16.67° C | 67% | 964.2 hPa | - | - | - | - |
| 1787975839 | 16.67° C | 67% | 964.2 hPa | - | - | - | - |
| 1787974939 | 17.22° C | 66% | 964.2 hPa | - | - | - | - |
| 1787974039 | 16.67° C | 68% | 964 hPa | - | - | - | - |
| 1787973139 | 17.22° C | 68% | 963.9 hPa | - | - | - | - |
* Rain since midnight (hover to see other rain measurements)
** Current wind speed in m/s (hover to see current wind gust speed)